BAW9CJ EGLL-EBBR

Flight info

Callsign BAW9CJ
Flight time 0h 41m
Altitude 23000
Route DET Q70 KOK
Aircraft A319/M-SDE3FGHIRWY/LB1

Departure

Time 2026-05-07 18:41
Airport London Heathrow Airport (EGLL)

Arrival

Time 2026-05-07 19:22
Airport Brussels Airport (EBBR)
Time Latitude Longitude Altitude Speed Heading
2026-05-07 18:13 51.47213 -0.48045 86 ft 0 kts 270°
2026-05-07 18:13 51.47213 -0.48034 86 ft 0 kts 270°
2026-05-07 18:27 51.47213 -0.48000 86 ft 4 kts 270°
2026-05-07 18:27 51.47214 -0.47957 86 ft 4 kts 270°
2026-05-07 18:27 51.47214 -0.47921 86 ft 3 kts 268°
2026-05-07 18:27 51.47216 -0.47895 86 ft 4 kts 240°
2026-05-07 18:28 51.47241 -0.47871 88 ft 3 kts 180°
2026-05-07 18:28 51.47255 -0.47871 88 ft 0 kts 180°
2026-05-07 18:30 51.47252 -0.47871 89 ft 3 kts 180°
2026-05-07 18:31 51.47220 -0.47871 89 ft 6 kts 180°
2026-05-07 18:31 51.47164 -0.47870 86 ft 10 kts 180°
2026-05-07 18:31 51.47092 -0.47870 86 ft 2 kts 180°
2026-05-07 18:31 51.47067 -0.47869 86 ft 0 kts 179°
2026-05-07 18:32 51.47057 -0.47869 86 ft 2 kts 179°
2026-05-07 18:32 51.47055 -0.47869 86 ft 0 kts 179°
2026-05-07 18:35 51.47046 -0.47869 86 ft 3 kts 179°
2026-05-07 18:35 51.47013 -0.47869 86 ft 7 kts 179°
2026-05-07 18:35 51.46955 -0.47869 86 ft 10 kts 180°
2026-05-07 18:36 51.46876 -0.47868 86 ft 13 kts 180°
2026-05-07 18:36 51.46818 -0.47868 86 ft 4 kts 179°
2026-05-07 18:36 51.46815 -0.47868 86 ft 0 kts 179°
2026-05-07 18:36 51.46812 -0.47868 86 ft 2 kts 179°
2026-05-07 18:37 51.46772 -0.47873 86 ft 9 kts 199°
2026-05-07 18:37 51.46742 -0.47969 86 ft 11 kts 274°
2026-05-07 18:37 51.46743 -0.48099 86 ft 8 kts 270°
2026-05-07 18:37 51.46743 -0.48109 86 ft 0 kts 270°
2026-05-07 18:38 51.46743 -0.48113 86 ft 2 kts 270°
2026-05-07 18:38 51.46743 -0.48178 88 ft 8 kts 270°
2026-05-07 18:38 51.46743 -0.48286 86 ft 11 kts 269°
2026-05-07 18:38 51.46743 -0.48423 86 ft 14 kts 269°
2026-05-07 18:39 51.46742 -0.48589 86 ft 16 kts 269°
2026-05-07 18:39 51.46717 -0.48739 86 ft 13 kts 201°
2026-05-07 18:39 51.46636 -0.48752 86 ft 12 kts 187°
2026-05-07 18:39 51.46549 -0.48787 88 ft 14 kts 189°
2026-05-07 18:40 51.46477 -0.48691 88 ft 15 kts 101°
2026-05-07 18:40 51.46475 -0.48440 87 ft 48 kts 90°
2026-05-07 18:40 51.46479 -0.47430 86 ft 131 kts 89°
2026-05-07 18:40 51.46487 -0.45694 357 ft 169 kts 91°
2026-05-07 18:41 51.46514 -0.43737 967 ft 186 kts 91°
2026-05-07 18:41 51.46342 -0.41632 1754 ft 190 kts 110°
2026-05-07 18:41 51.45744 -0.39748 2528 ft 193 kts 126°
2026-05-07 18:41 51.44947 -0.38007 3261 ft 201 kts 126°
2026-05-07 18:42 51.44098 -0.36160 3995 ft 211 kts 126°
2026-05-07 18:42 51.43345 -0.34103 4806 ft 218 kts 109°
2026-05-07 18:42 51.43060 -0.31686 5642 ft 224 kts 94°
2026-05-07 18:42 51.42984 -0.29208 6584 ft 225 kts 93°
2026-05-07 18:43 51.42825 -0.26687 7402 ft 230 kts 101°
2026-05-07 18:43 51.42412 -0.24158 8076 ft 245 kts 107°
2026-05-07 18:43 51.42098 -0.22330 8398 ft 261 kts 106°
2026-05-07 18:43 51.41464 -0.18391 9193 ft 285 kts 105°
2026-05-07 18:44 51.41145 -0.16289 9779 ft 290 kts 104°
2026-05-07 18:44 51.40685 -0.13131 10421 ft 304 kts 104°
2026-05-07 18:44 51.40202 -0.09710 10735 ft 327 kts 104°
2026-05-07 18:44 51.39694 -0.06049 11176 ft 343 kts 104°
2026-05-07 18:45 51.39177 -0.02283 11893 ft 349 kts 104°
2026-05-07 18:45 51.38655 0.01532 12699 ft 352 kts 104°
2026-05-07 18:45 51.38127 0.05371 13481 ft 356 kts 104°
2026-05-07 18:45 51.37587 0.09266 14202 ft 359 kts 104°
2026-05-07 18:46 51.37037 0.13187 14861 ft 363 kts 104°
2026-05-07 18:46 51.36477 0.17158 15508 ft 368 kts 104°
2026-05-07 18:46 51.35910 0.21170 16161 ft 372 kts 104°
2026-05-07 18:46 51.35336 0.25230 16808 ft 376 kts 104°
2026-05-07 18:47 51.34754 0.29334 17455 ft 380 kts 104°
2026-05-07 18:47 51.34166 0.33485 18102 ft 385 kts 104°
2026-05-07 18:47 51.33569 0.37671 18694 ft 389 kts 104°
2026-05-07 18:47 51.32960 0.41918 19267 ft 393 kts 104°
2026-05-07 18:48 51.32346 0.46193 19662 ft 396 kts 104°
2026-05-07 18:48 51.31725 0.50513 20241 ft 400 kts 104°
2026-05-07 18:48 51.31094 0.54876 20837 ft 404 kts 104°
2026-05-07 18:48 51.30501 0.59220 21402 ft 408 kts 101°
2026-05-07 18:49 51.30245 0.63768 21965 ft 413 kts 94°
2026-05-07 18:49 51.30095 0.68347 22529 ft 416 kts 94°
2026-05-07 18:49 51.29937 0.72997 22889 ft 419 kts 94°
2026-05-07 18:49 51.29772 0.77658 22980 ft 419 kts 95°
2026-05-07 18:50 51.29600 0.82316 23003 ft 419 kts 95°
2026-05-07 18:50 51.29426 0.86944 23024 ft 419 kts 95°
2026-05-07 18:50 51.29246 0.91613 23049 ft 419 kts 95°
2026-05-07 18:50 51.29067 0.96253 23075 ft 419 kts 95°
2026-05-07 18:51 51.28888 1.00860 23077 ft 420 kts 95°
2026-05-07 18:51 51.28707 1.05508 23076 ft 420 kts 95°
2026-05-07 18:51 51.28523 1.10163 23077 ft 420 kts 95°
2026-05-07 18:51 51.28340 1.14811 23076 ft 420 kts 95°
2026-05-07 18:52 51.28155 1.19473 23072 ft 420 kts 95°
2026-05-07 18:52 51.27970 1.24118 23073 ft 420 kts 95°
2026-05-07 18:52 51.27783 1.28782 23073 ft 420 kts 95°
2026-05-07 18:52 51.27594 1.33431 23072 ft 420 kts 95°
2026-05-07 18:53 51.27401 1.38083 23068 ft 419 kts 95°
2026-05-07 18:53 51.27204 1.42730 23068 ft 419 kts 95°
2026-05-07 18:53 51.27004 1.47378 23060 ft 420 kts 95°
2026-05-07 18:53 51.26804 1.52027 23060 ft 420 kts 95°
2026-05-07 18:54 51.26605 1.56682 23064 ft 420 kts 95°
2026-05-07 18:54 51.26403 1.61344 23064 ft 420 kts 95°
2026-05-07 18:54 51.26199 1.65992 23064 ft 420 kts 95°
2026-05-07 18:54 51.25992 1.70635 23065 ft 420 kts 95°
2026-05-07 18:55 51.25628 1.75257 23066 ft 419 kts 103°
2026-05-07 18:55 51.25012 1.79803 23067 ft 419 kts 103°
2026-05-07 18:55 51.24391 1.84345 23068 ft 419 kts 103°
2026-05-07 18:55 51.23768 1.88892 23070 ft 419 kts 103°
2026-05-07 18:56 51.23144 1.93433 23066 ft 419 kts 103°
2026-05-07 18:56 51.22526 1.97910 23067 ft 419 kts 103°
2026-05-07 18:56 51.21895 2.02446 23067 ft 419 kts 104°
2026-05-07 18:56 51.21257 2.06994 23069 ft 419 kts 104°
2026-05-07 18:57 51.20617 2.11544 23073 ft 419 kts 104°
2026-05-07 18:57 51.19979 2.16076 23072 ft 419 kts 104°
2026-05-07 18:57 51.19341 2.20611 23074 ft 419 kts 104°
2026-05-07 18:57 51.18705 2.25144 23073 ft 419 kts 104°
2026-05-07 18:58 51.18068 2.29684 23074 ft 419 kts 104°
2026-05-07 18:58 51.17427 2.34225 23074 ft 419 kts 104°
2026-05-07 18:58 51.16784 2.38757 23069 ft 419 kts 104°
2026-05-07 18:58 51.16137 2.43284 23070 ft 419 kts 104°
2026-05-07 18:59 51.15488 2.47816 23075 ft 419 kts 104°
2026-05-07 18:59 51.14837 2.52333 23074 ft 419 kts 104°
2026-05-07 18:59 51.14181 2.56874 23077 ft 419 kts 104°
2026-05-07 18:59 51.13535 2.61341 23077 ft 419 kts 104°
2026-05-07 19:00 51.12883 2.65857 22882 ft 417 kts 104°
2026-05-07 19:00 51.12235 2.70340 22602 ft 415 kts 104°
2026-05-07 19:00 51.11587 2.74796 22329 ft 413 kts 104°
2026-05-07 19:00 51.10938 2.79247 22065 ft 411 kts 104°
2026-05-07 19:01 51.10290 2.83674 21793 ft 409 kts 104°
2026-05-07 19:01 51.09644 2.88071 21535 ft 407 kts 104°
2026-05-07 19:01 51.08998 2.92442 21271 ft 405 kts 104°
2026-05-07 19:01 51.08353 2.96789 21017 ft 403 kts 104°
2026-05-07 19:02 51.07709 3.01125 20757 ft 401 kts 104°
2026-05-07 19:02 51.07068 3.05442 20502 ft 400 kts 104°
2026-05-07 19:02 51.06430 3.09727 20250 ft 398 kts 104°
2026-05-07 19:02 51.05791 3.13998 20001 ft 396 kts 104°
2026-05-07 19:03 51.05163 3.18205 19749 ft 395 kts 104°
2026-05-07 19:03 51.04528 3.22446 19509 ft 393 kts 104°
2026-05-07 19:03 51.03895 3.26661 19273 ft 391 kts 104°
2026-05-07 19:03 51.03261 3.30861 19019 ft 390 kts 104°
2026-05-07 19:04 51.02630 3.35033 18774 ft 388 kts 104°
2026-05-07 19:04 51.01998 3.39202 18543 ft 387 kts 104°
2026-05-07 19:04 51.01368 3.43344 18294 ft 385 kts 104°
2026-05-07 19:04 51.00737 3.47480 18022 ft 383 kts 104°
2026-05-07 19:05 51.00108 3.51585 17751 ft 382 kts 104°
2026-05-07 19:05 50.99484 3.55652 17484 ft 380 kts 104°
2026-05-07 19:05 50.98867 3.59746 17215 ft 378 kts 102°
2026-05-07 19:05 50.98743 3.63891 16952 ft 378 kts 84°
2026-05-07 19:06 50.99071 3.68021 16688 ft 376 kts 82°
2026-05-07 19:06 50.99788 3.76233 16018 ft 373 kts 82°
2026-05-07 19:06 51.00141 3.80233 15444 ft 371 kts 82°
2026-05-07 19:07 51.00504 3.84337 14820 ft 370 kts 82°
2026-05-07 19:07 51.00856 3.88315 14223 ft 368 kts 82°
2026-05-07 19:07 51.01212 3.92324 13590 ft 366 kts 82°
2026-05-07 19:07 51.01566 3.96310 12922 ft 363 kts 82°
2026-05-07 19:08 51.01916 4.00267 12255 ft 360 kts 82°
2026-05-07 19:08 51.02261 4.04196 11617 ft 358 kts 82°
2026-05-07 19:08 51.02600 4.08096 10993 ft 353 kts 82°
2026-05-07 19:08 51.02930 4.11903 10380 ft 343 kts 82°
2026-05-07 19:09 51.03249 4.15625 9750 ft 337 kts 83°
2026-05-07 19:09 51.03562 4.19281 9076 ft 331 kts 83°
2026-05-07 19:09 51.03871 4.22877 8417 ft 325 kts 83°
2026-05-07 19:09 51.04176 4.26405 7770 ft 319 kts 83°
2026-05-07 19:10 51.04473 4.29822 7144 ft 312 kts 83°
2026-05-07 19:10 51.04768 4.33200 6525 ft 306 kts 83°
2026-05-07 19:10 51.05060 4.36524 5873 ft 301 kts 82°
2026-05-07 19:10 51.05340 4.39789 5231 ft 296 kts 83°
2026-05-07 19:11 51.05608 4.43004 4592 ft 291 kts 83°
2026-05-07 19:11 51.05866 4.46136 4105 ft 281 kts 83°
2026-05-07 19:11 51.06114 4.49172 3644 ft 273 kts 83°
2026-05-07 19:11 51.06356 4.52130 3185 ft 266 kts 83°
2026-05-07 19:12 51.06588 4.54997 3007 ft 257 kts 83°
2026-05-07 19:12 51.06815 4.57800 3008 ft 255 kts 83°
2026-05-07 19:12 51.07042 4.60603 3013 ft 255 kts 83°
2026-05-07 19:12 51.07270 4.63408 3006 ft 255 kts 83°
2026-05-07 19:13 51.07496 4.66204 3011 ft 255 kts 83°
2026-05-07 19:13 51.07723 4.69008 3017 ft 255 kts 83°
2026-05-07 19:13 51.07948 4.71804 3016 ft 255 kts 83°
2026-05-07 19:13 51.08171 4.74573 3015 ft 256 kts 83°
2026-05-07 19:14 51.08398 4.77411 3018 ft 256 kts 83°
2026-05-07 19:14 51.08619 4.80186 3020 ft 256 kts 83°
2026-05-07 19:14 51.08842 4.82991 3018 ft 256 kts 83°
2026-05-07 19:14 51.09065 4.85809 3020 ft 256 kts 83°
2026-05-07 19:15 51.09212 4.88622 3011 ft 256 kts 95°
2026-05-07 19:15 51.08649 4.91228 3011 ft 245 kts 125°
2026-05-07 19:15 51.07395 4.92882 3012 ft 231 kts 157°
2026-05-07 19:15 51.05823 4.93167 3022 ft 230 kts 191°
2026-05-07 19:16 51.04405 4.92068 3025 ft 230 kts 218°
2026-05-07 19:16 51.03210 4.90488 3009 ft 214 kts 220°
2026-05-07 19:16 51.02128 4.89001 3049 ft 198 kts 221°
2026-05-07 19:16 51.01103 4.87584 3013 ft 192 kts 221°
2026-05-07 19:17 51.00111 4.86210 3017 ft 190 kts 221°
2026-05-07 19:17 50.99105 4.84812 3021 ft 190 kts 221°
2026-05-07 19:17 50.98126 4.83451 3016 ft 189 kts 221°
2026-05-07 19:17 50.97191 4.81983 3016 ft 190 kts 229°
2026-05-07 19:18 50.96397 4.80315 3008 ft 190 kts 241°
2026-05-07 19:18 50.95876 4.78394 3017 ft 190 kts 249°
2026-05-07 19:18 50.95414 4.76422 3018 ft 190 kts 250°
2026-05-07 19:18 50.94961 4.74446 3006 ft 191 kts 250°
2026-05-07 19:19 50.94511 4.72473 2833 ft 190 kts 250°
2026-05-07 19:19 50.94067 4.70527 2612 ft 189 kts 250°
2026-05-07 19:19 50.93614 4.68545 2361 ft 189 kts 250°
2026-05-07 19:19 50.93173 4.66619 2101 ft 188 kts 250°
2026-05-07 19:20 50.92733 4.64695 1845 ft 182 kts 250°
2026-05-07 19:20 50.92317 4.62880 1603 ft 168 kts 250°
2026-05-07 19:20 50.91932 4.61201 1381 ft 156 kts 250°
2026-05-07 19:20 50.91574 4.59642 1181 ft 143 kts 250°
2026-05-07 19:21 50.91242 4.58199 979 ft 136 kts 251°
2026-05-07 19:21 50.90923 4.56805 779 ft 134 kts 251°
2026-05-07 19:21 50.90605 4.55425 531 ft 132 kts 250°
2026-05-07 19:21 50.90290 4.54063 390 ft 132 kts 251°
2026-05-07 19:22 50.89979 4.52703 257 ft 132 kts 251°
2026-05-07 19:22 50.89677 4.51380 174 ft 115 kts 250°
2026-05-07 19:22 50.89456 4.50428 176 ft 69 kts 249°
2026-05-07 19:22 50.89332 4.49833 178 ft 43 kts 267°
2026-05-07 19:23 50.89415 4.49581 168 ft 11 kts 304°
2026-05-07 19:23 50.89438 4.49529 167 ft 0 kts 305°
2026-05-07 19:24 50.89449 4.49504 166 ft 7 kts 305°
2026-05-07 19:24 50.89487 4.49422 164 ft 12 kts 307°
2026-05-07 19:24 50.89547 4.49297 160 ft 18 kts 308°
2026-05-07 19:24 50.89632 4.49152 153 ft 18 kts 349°
2026-05-07 19:25 50.89782 4.49204 145 ft 26 kts 15°
2026-05-07 19:25 50.89982 4.49282 133 ft 20 kts 14°
2026-05-07 19:25 50.90099 4.49330 128 ft 12 kts 15°
2026-05-07 19:25 50.90166 4.49359 126 ft 1 kts 15°
2026-05-07 19:26 50.90196 4.49372 129 ft 8 kts 15°
2026-05-07 19:26 50.90262 4.49401 127 ft 9 kts 15°
2026-05-07 19:26 50.90332 4.49353 125 ft 14 kts 276°
2026-05-07 19:26 50.90294 4.49208 124 ft 15 kts 245°
2026-05-07 19:27 50.90249 4.49050 125 ft 16 kts 246°
2026-05-07 19:27 50.90198 4.48875 126 ft 13 kts 245°
2026-05-07 19:27 50.90152 4.48717 127 ft 19 kts 245°
2026-05-07 19:27 50.90105 4.48553 124 ft 12 kts 245°
2026-05-07 19:28 50.90075 4.48450 125 ft 7 kts 245°
2026-05-07 19:28 50.90030 4.48448 126 ft 8 kts 134°
2026-05-07 19:28 50.90011 4.48466 128 ft 2 kts 153°
2026-05-07 19:28 50.89999 4.48475 129 ft 0 kts 155°
2026-05-07 19:29 50.89992 4.48481 128 ft 0 kts 155°
2026-05-07 19:29 50.89991 4.48481 127 ft 0 kts 155°